[[{"header":{"parameterUnit":"m.s-1","parameterCategory":1,"la1":30.2991,"la2":30.254,"lo1":-89.0895,"lo2":-89.0444,"dx":0.0017,"dy":0.0017,"nx":28,"ny":28,"refTime":"2022-11-21T15:00:00:Z","depth":0,"parameterNumber":2,"parameterNumberName":"U-component_of_WINDS"},"data":[0,0,0,0,0,0,0,0,0,0,0,0,0,0,0,0,0,0,0,0,0,0,0,0,0,0,0,0,0,0,0,0,0,0,0,0,0,0,0,0,0,0,0,0,0,0,0,0,0,0,0,0,0,0,0,0,0,0,-2.7142,-2.7143,0,-2.72,-2.7201,-2.7201,-2.7106,-2.7102,-2.7099,-2.7096,-2.7157,-2.7162,-2.7166,0,0,0,0,0,0,0,0,0,0,0,0,0,-2.695,-2.6954,-2.7142,-2.7143,-2.7144,-2.72,-2.7201,-2.7201,-2.7106,-2.7102,-2.7098,-2.7095,-2.7156,-2.7161,-2.7167,0,0,0,0,0,0,0,0,0,0,0,0,0,-2.7023,-2.6956,-2.7142,-2.7103,-2.71,-2.72,-2.7201,-2.7202,-2.7107,-2.7102,-2.7097,-2.7093,-2.7154,-2.7161,-2.7168,-2.7309,0,0,-2.7189,-2.7192,0,0,0,0,0,0,0,0,-2.7019,-2.7031,-2.7108,-2.7106,-2.7103,-2.7141,-2.7155,-2.7238,-2.7108,-2.7105,-2.7096,-2.709,-2.7156,-2.7162,-2.7184,-2.7312,-2.7314,-2.719,-2.7194,-2.7197,-2.7199,0,0,0,0,0,0,0,-2.7014,-2.7028,-2.7165,-2.7109,-2.7106,-2.7083,-2.7088,-2.717,-2.7157,-2.7104,-2.7098,-2.7106,-2.7153,-2.7177,-2.7185,-2.7315,-2.7189,-2.7196,-2.72,-2.7203,-2.7562,-2.7567,0,0,0,0,0,0,-2.7014,-2.7024,-2.7163,-2.7167,-2.7048,-2.709,-2.7096,-2.7133,-2.7156,-2.7154,-2.711,-2.7101,-2.7168,-2.7177,-2.7187,-2.7354,-2.7197,-2.7203,-2.7207,-2.7556,-2.7563,-2.7569,0,0,0,0,0,0,-2.701,-2.7027,-2.7161,-2.7094,-2.7109,-2.7099,-2.7142,-2.7137,-2.7161,-2.716,-2.7157,-2.7137,-2.7164,-2.7177,-2.7279,-2.7355,-2.7207,-2.7213,-2.755,-2.7558,-2.7566,-2.769,0,0,0,0,0,0,-2.7005,-2.7027,-2.708,-2.7095,-2.7113,-2.7253,-2.7146,-2.7142,-2.7173,-2.7162,-2.7185,-2.7184,-2.7161,-2.7269,-2.7286,-2.7362,-2.7218,-2.7543,-2.7554,-2.7563,-2.7679,-2.7701,-2.772,0,0,0,0,0,-2.6999,-2.7113,-2.7083,-2.7101,-2.7179,-2.7257,-2.7267,-2.7239,-2.718,-2.7234,-2.7233,-2.7183,-2.7343,-2.728,-2.7299,-2.7378,-2.7538,-2.7551,-2.7562,-2.767,-2.7697,-2.772,0,0,0,0,0,0,-2.7108,-2.7115,-2.7082,-2.7205,-2.7231,-2.7241,-2.7308,-2.7268,-2.7313,-2.7301,-2.7264,-2.727,-2.738,-2.7389,-2.7319,-2.7515,-2.7431,-2.7447,-2.7507,-2.7532,-2.7552,-2.7549,-2.7224,0,0,0,0,0,-2.7147,-2.7209,-2.7211,-2.7319,-2.7334,-2.7319,-2.7352,-2.7328,-2.7354,-2.7365,-2.7371,-2.7399,-2.7455,-2.7494,-2.7546,-2.7679,-2.7683,-2.7742,-2.7763,-2.7779,-2.7795,-2.7866,-2.7893,-2.7608,-2.7608,-2.7608,0,0,-2.7227,-2.7238,-2.728,-2.7342,-2.7359,-2.7425,-2.7329,-2.7403,-2.7452,-2.7376,-2.7474,-2.7479,-2.7507,-2.7626,-2.7679,-2.7637,-2.7874,-2.7795,-2.7808,-2.7814,-2.7881,-2.7908,-2.7932,-2.7616,-2.7615,-2.7613,0,0,-2.7407,-2.7421,-2.7513,-2.7533,-2.756,-2.7549,-2.7571,-2.7587,-2.7588,-2.7684,-2.7629,-2.7686,-2.7784,-2.7807,-2.7831,-2.8018,-2.7974,-2.8036,-2.8144,-2.8214,-2.8237,-2.8256,-2.8324,-2.8349,-2.805,-2.8051,-2.8051,0,-2.7504,-2.7601,-2.7566,-2.7644,-2.7673,-2.7606,-2.7699,-2.7719,-2.7763,-2.7785,-2.7736,-2.7857,-2.7872,-2.7995,-2.804,-2.8062,-2.8087,-2.8034,-2.8236,-2.8256,-2.8273,-2.8338,-2.8363,-2.8058,-2.8057,-2.8057,-2.8056,0,-2.7719,-2.7786,-2.7857,-2.79,-2.7937,-2.8022,-2.8,-2.8042,-2.8014,-2.8008,-2.8107,-2.8121,-2.8175,-2.8202,-2.8176,-2.8322,-2.8295,-2.8242,-2.8157,-2.8309,-2.8369,-2.8393,-2.8069,-2.8066,-2.8064,-2.8062,0,0,-2.7973,-2.7994,-2.8021,-2.8039,-2.8064,-2.8116,-2.8197,-2.8249,-2.8285,-2.8317,-2.8385,-2.8469,-2.842,-2.8447,-2.8422,-2.8484,-2.8632,-2.8423,-2.8423,-2.8463,-2.8795,-2.8836,-2.8865,-2.8602,-2.8607,-2.861,-2.8793,0,-2.8153,-2.8294,-2.8264,-2.8403,-2.8465,-2.8401,-2.8472,-2.8495,-2.8492,-2.8544,-2.8539,-2.86,-2.853,-2.8546,-2.8604,-2.8602,-2.8699,-2.8588,-2.8667,-2.867,-2.8664,-2.8896,-2.8941,-2.9113,-2.8816,-2.882,-2.8823,0,-2.8383,-2.8423,-2.8568,-2.8581,-2.8606,-2.8671,-2.8716,-2.8766,-2.8791,-2.8783,-2.8814,-2.8777,-2.8858,-2.877,-2.8882,-2.8807,-2.8837,-2.8841,-2.8847,-2.8855,-2.8757,-2.8913,-2.9167,-2.9193,-2.8859,-2.8856,-2.8854,0,-2.8556,-2.8645,-2.8743,-2.8761,-2.8779,-2.8826,-2.8836,-2.8855,-2.8888,-2.8927,-2.8948,-2.8996,-2.9023,-2.9061,-2.9038,-2.8976,-2.9154,-2.9064,-2.9151,-2.9152,-2.9194,-2.9192,-2.9459,-2.921,-2.921,-2.9209,-2.9209,0,-2.8762,-2.8854,-2.8821,-2.8882,-2.8982,-2.8946,-2.9047,-2.9049,-2.9066,-2.9127,-2.9074,-2.9131,-2.9096,-2.9151,-2.9133,-2.9229,-2.9241,-2.9238,-2.9233,-2.9245,-2.9245,-2.9266,-2.9254,-2.9216,-2.9214,-2.9213,-2.9212,0,-2.8973,-2.8955,-2.9058,-2.9066,-2.907,-2.9144,-2.9151,-2.9208,-2.9198,-2.9275,-2.9291,-2.9278,-2.934,-2.932,-2.9386,-2.9374,-2.9496,-2.9474,-2.9488,-2.9484,-2.9573,-2.9566,-2.9863,-2.9901,-2.9627,-2.9629,-2.9631,0,-2.9107,-2.9176,-2.9191,-2.9227,-2.9241,-2.93,-2.9333,-2.9299,-2.9336,-2.9368,-2.9421,-2.9478,-2.9522,-2.9623,-2.962,-2.967,-2.965,-2.9751,-2.9658,-2.9667,-2.9654,-2.9651,-2.9658,-2.9771,-2.9774,-2.9776,-2.9779,0,-2.9348,-2.9335,-2.9384,-2.943,-2.9471,-2.9505,-2.9535,-2.9568,-2.9537,-2.958,-2.9642,-2.9676,-2.9743,-2.9801,-2.9846,-2.9856,-2.9814,-2.9807,-2.9831,-2.9844,-2.985,-2.985,-2.9541,-2.9801,-2.9799,-2.9798,-2.9796,-2.9795,-2.9525,-2.9584,-2.9603,-2.966,-2.9678,-2.9707,-2.9761,-2.9758,-2.9809,-2.9861,-2.9838,-2.991,-2.9931,-2.9988,-3.0004,-3.006,-3.0021,-3.0054,-3.0063,-3.0073,-3.0085,-2.9839,-3.0067,-3.0067,-3.0066,-3.0066,-3.0065,0,-2.9764,-2.9773,-2.9825,-2.9869,-2.9913,-2.9866,-2.9897,-2.9937,-3.0001,-3.0024,-3.0068,-3.014,-3.0194,-3.0195,-3.0246,-3.029,-3.0272,-3.0305,-3.0303,-3.0306,-3.0116,-3.0091,-3.0319,-3.0319,-3.0319,-3.0319,-3.0319,-3.0319,-2.9894,-2.999,-2.9979,-3.0084,-3.0092,-3.0162,-3.0183,-3.021,-3.0228,-3.031,-3.0355,-3.0354,-3.0368,-3.042,-3.0468,-3.0467,-3.0489,-3.053,-3.0522,-3.0344,-3.0319,-3.0295,-3.0272,-3.0535,-3.0535,-3.0707,-3.0709,-3.071]},{"header":{"parameterUnit":"m.s-1","parameterCategory":1,"la1":30.2991,"la2":30.254,"lo1":-89.0895,"lo2":-89.0444,"dx":0.0017,"dy":0.0017,"nx":28,"ny":28,"refTime":"2022-11-21T15:00:00:Z","depth":0,"parameterNumber":3,"parameterNumberName":"V-component_of_WINDS"},"data":[0,0,0,0,0,0,0,0,0,0,0,0,0,0,0,0,0,0,0,0,0,0,0,0,0,0,0,0,0,0,0,0,0,0,0,0,0,0,0,0,0,0,0,0,0,0,0,0,0,0,0,0,0,0,0,0,0,0,-3.667,-3.667,0,-3.669,-3.669,-3.6691,-3.6645,-3.6644,-3.6642,-3.6641,-3.6661,-3.6663,-3.6665,0,0,0,0,0,0,0,0,0,0,0,0,0,-3.659,-3.6591,-3.667,-3.667,-3.667,-3.669,-3.669,-3.6691,-3.6645,-3.6644,-3.6642,-3.664,-3.6661,-3.6663,-3.6665,0,0,0,0,0,0,0,0,0,0,0,0,0,-3.6619,-3.6592,-3.667,-3.665,-3.6649,-3.669,-3.669,-3.6691,-3.6646,-3.6644,-3.6641,-3.6639,-3.666,-3.6663,-3.6666,-3.6727,0,0,-3.6674,-3.6675,0,0,0,0,0,0,0,0,-3.6617,-3.6622,-3.6653,-3.6652,-3.665,-3.6663,-3.6669,-3.6703,-3.6646,-3.6647,-3.6641,-3.6638,-3.6664,-3.6666,-3.6675,-3.6728,-3.6729,-3.6674,-3.6676,-3.6677,-3.6678,0,0,0,0,0,0,0,-3.6615,-3.6621,-3.6678,-3.6653,-3.6651,-3.664,-3.6641,-3.6676,-3.6667,-3.6647,-3.6643,-3.6646,-3.6662,-3.6672,-3.6675,-3.6729,-3.6674,-3.6677,-3.6679,-3.668,-3.6831,-3.6833,0,0,0,0,0,0,-3.6616,-3.6619,-3.6677,-3.6678,-3.6628,-3.6643,-3.6645,-3.6661,-3.6667,-3.6665,-3.6648,-3.6644,-3.6668,-3.6671,-3.6675,-3.6746,-3.6677,-3.668,-3.6682,-3.6829,-3.6831,-3.6834,0,0,0,0,0,0,-3.6614,-3.6621,-3.6676,-3.6648,-3.6654,-3.6646,-3.6665,-3.6662,-3.6672,-3.6668,-3.6666,-3.666,-3.6667,-3.6671,-3.6714,-3.6746,-3.6681,-3.6684,-3.6826,-3.6829,-3.6833,-3.6889,0,0,0,0,0,0,-3.6612,-3.6621,-3.6645,-3.6649,-3.6656,-3.6715,-3.6667,-3.6664,-3.6677,-3.6672,-3.6678,-3.6677,-3.6665,-3.671,-3.6717,-3.6749,-3.6686,-3.6823,-3.6827,-3.6832,-3.6884,-3.6894,-3.6902,0,0,0,0,0,-3.6609,-3.6661,-3.6647,-3.6654,-3.6686,-3.6717,-3.6721,-3.6707,-3.668,-3.6703,-3.67,-3.6677,-3.6741,-3.6715,-3.6722,-3.6755,-3.6821,-3.6826,-3.6831,-3.688,-3.6892,-3.6902,0,0,0,0,0,0,-3.6662,-3.6661,-3.6645,-3.6699,-3.6709,-3.671,-3.6739,-3.672,-3.6737,-3.6732,-3.6712,-3.6714,-3.676,-3.6762,-3.6732,-3.6814,-3.6776,-3.6783,-3.6811,-3.6822,-3.6831,-3.6829,-3.6689,0,0,0,0,0,-3.6679,-3.6706,-3.6703,-3.6751,-3.6756,-3.6747,-3.676,-3.6748,-3.6757,-3.6761,-3.6761,-3.677,-3.6792,-3.6807,-3.6828,-3.6884,-3.6884,-3.691,-3.6919,-3.6927,-3.6933,-3.6961,-3.6972,-3.6851,-3.6851,-3.6851,0,0,-3.6716,-3.6719,-3.6737,-3.6761,-3.6767,-3.6794,-3.6751,-3.6782,-3.6801,-3.6765,-3.6805,-3.6806,-3.6814,-3.6864,-3.6885,-3.6867,-3.6966,-3.6933,-3.6939,-3.6941,-3.6967,-3.6979,-3.6989,-3.6854,-3.6854,-3.6853,0,0,-3.6797,-3.6803,-3.6842,-3.6848,-3.6857,-3.685,-3.6859,-3.6863,-3.6861,-3.6901,-3.6874,-3.6897,-3.6936,-3.6943,-3.6951,-3.7032,-3.701,-3.7039,-3.7086,-3.7113,-3.7123,-3.7131,-3.7159,-3.7169,-3.7045,-3.7045,-3.7045,0,-3.6842,-3.6882,-3.6865,-3.6896,-3.6907,-3.6875,-3.6914,-3.6921,-3.6936,-3.6944,-3.6923,-3.697,-3.6974,-3.7023,-3.7042,-3.7051,-3.706,-3.7038,-3.7123,-3.7131,-3.7139,-3.7165,-3.7175,-3.7049,-3.7048,-3.7048,-3.7048,0,-3.6936,-3.6963,-3.6994,-3.7008,-3.7023,-3.7058,-3.7045,-3.7061,-3.7047,-3.7042,-3.7081,-3.7085,-3.7104,-3.7115,-3.7102,-3.7162,-3.715,-3.7126,-3.7088,-3.7154,-3.7178,-3.7188,-3.7053,-3.7052,-3.7051,-3.705,0,0,-3.7052,-3.7054,-3.7066,-3.7071,-3.7077,-3.7098,-3.7131,-3.7149,-3.7163,-3.7174,-3.72,-3.7233,-3.721,-3.722,-3.7207,-3.7232,-3.7293,-3.7204,-3.7204,-3.722,-3.7358,-3.7375,-3.7387,-3.7279,-3.7281,-3.7282,-3.7357,0,-3.713,-3.7187,-3.7171,-3.7228,-3.7252,-3.7221,-3.7249,-3.7256,-3.7251,-3.7271,-3.7265,-3.7288,-3.7258,-3.7263,-3.7285,-3.7281,-3.7321,-3.7276,-3.7303,-3.7304,-3.7301,-3.74,-3.7419,-3.7489,-3.7366,-3.7368,-3.7369,0,-3.7231,-3.7244,-3.7303,-3.7303,-3.7312,-3.7338,-3.7353,-3.7372,-3.7378,-3.7373,-3.7383,-3.7364,-3.7395,-3.7357,-3.7399,-3.7369,-3.7379,-3.7378,-3.7381,-3.7382,-3.734,-3.7403,-3.7511,-3.7521,-3.7384,-3.7383,-3.7381,0,-3.7308,-3.7341,-3.7379,-3.7385,-3.7386,-3.7405,-3.7406,-3.741,-3.7421,-3.7434,-3.7441,-3.7457,-3.7466,-3.7479,-3.7464,-3.7438,-3.7508,-3.7469,-3.7504,-3.7504,-3.752,-3.7519,-3.763,-3.7528,-3.7528,-3.7527,-3.7527,0,-3.7397,-3.7434,-3.7414,-3.7437,-3.7477,-3.7458,-3.7497,-3.7495,-3.7498,-3.752,-3.7495,-3.7516,-3.7496,-3.7516,-3.7505,-3.754,-3.7545,-3.7541,-3.7537,-3.7543,-3.7543,-3.7549,-3.7543,-3.753,-3.753,-3.7529,-3.7529,0,-3.749,-3.7478,-3.7518,-3.7515,-3.7515,-3.7544,-3.7542,-3.7563,-3.7556,-3.7584,-3.759,-3.7578,-3.7599,-3.7587,-3.7608,-3.7601,-3.7647,-3.7637,-3.7645,-3.7642,-3.7677,-3.7673,-3.7795,-3.7809,-3.7698,-3.7699,-3.77,0,-3.7548,-3.7575,-3.7575,-3.7587,-3.759,-3.7611,-3.7622,-3.7603,-3.7616,-3.7623,-3.7643,-3.7662,-3.7676,-3.7711,-3.7704,-3.772,-3.771,-3.7752,-3.7713,-3.7716,-3.771,-3.7708,-3.771,-3.7759,-3.7761,-3.7762,-3.7763,0,-3.7651,-3.7643,-3.766,-3.7674,-3.7687,-3.7698,-3.7706,-3.7718,-3.7699,-3.7714,-3.7734,-3.7745,-3.7766,-3.7784,-3.7797,-3.7798,-3.7777,-3.7775,-3.7783,-3.7789,-3.7792,-3.779,-3.7665,-3.7772,-3.7771,-3.7771,-3.777,-3.777,-3.7728,-3.7749,-3.7752,-3.777,-3.7774,-3.7782,-3.7801,-3.7795,-3.7812,-3.7828,-3.7815,-3.784,-3.7843,-3.7858,-3.7861,-3.788,-3.7863,-3.7876,-3.7879,-3.7882,-3.7886,-3.7789,-3.7882,-3.7882,-3.7882,-3.7881,-3.7881,0,-3.7828,-3.7828,-3.7845,-3.7856,-3.7871,-3.7849,-3.7856,-3.7869,-3.7891,-3.7895,-3.7909,-3.7932,-3.7949,-3.7943,-3.7958,-3.7974,-3.7964,-3.7978,-3.7977,-3.7977,-3.7901,-3.7892,-3.7986,-3.7986,-3.7986,-3.7986,-3.7986,-3.7986,-3.7883,-3.7918,-3.7909,-3.7945,-3.7944,-3.7967,-3.7973,-3.798,-3.7983,-3.8009,-3.8023,-3.8019,-3.8019,-3.8033,-3.8048,-3.8046,-3.8052,-3.8069,-3.8064,-3.7993,-3.7983,-3.7973,-3.7964,-3.8071,-3.8071,-3.8138,-3.8138,-3.8139]}]]